STARLINK-2207 (47421 NORAD) Tracking and Keplerian Element Data

This shows tracking and keplerian element data for the satellite.

Feedback or suggestion? Click here.




ElementValue
Catalog47421
NameSTARLINK-2207
Epoch Orbit1200
Epoch Day101.91404871
Epoch Year2021
RAAN164.5233
Inclination97.4995
Eccentricity0.0011093
Argument of Perigee17.7793
Mean Anonmoly342.3824
Mean Motion15.14317106
Decay Rate9.41E-06
L11 47421U 21006J 21101.91404871 .00000941 00000-0 54912-4 0 9995
L22 47421 97.4995 164.5233 0011093 17.7793 342.3824 15.14317106 12003

Live tracking and technical data element details for STARLINK-2207 (NORAD 47421). STARLINK-2207 can be tracked NOW for your location showing map with azimuth and elevation plus other details from your city location.

Track the satellite on the map from your city or location and see movement details for azimuth, elevation, latitude, longitude, range, height, and movement on the map or in text.







IsCatalogInMostPopularTable: catalog: 47421, numindb: 15
Update: records affected: 1



GetName: 47421 STARLINK-2207

Hit Count: updated at: Tue, 13 Apr 2021 03:45:47 GMT